Regional Weather Roundup
Issued by NWS

Home | Current Version | Previous Version | Graphics & Text | Print | Product List | Glossary On
Versions: 1 2 3 4 5 6 7 8 9 10 11 12 13 14 15 16 17 18 19 20 21 22 23 24 25 26 27 28 29 30 31 32 33 34 35 36 37 38 39 40 41 42 43 44 45 46 47 48 49 50
000
ASUS45 KABQ 241410
RWRNM
NEW MEXICO REGIONAL WEATHER ROUNDUP
NATIONAL WEATHER SERVICE ALBUQUERQUE NM
800 AM MDT SUN MAY 24 2015

NOTE: "FAIR" MEANS FEW OR NO CLOUDS BELOW 12,000 FEET AGL WITH NO
       SIGNIFICANT WEATHER OR OBSTRUCTIONS TO VISION.

      THIS PRODUCT IS RELEASED AS TWO VERSIONS.  ONE VERSION NEAR
      THE TOP OF THE HOUR CONTAINING PRELIMINARY DATA FROM ALBUQUERQUE
      AND OTHER STATIONS.  A FINAL VERSION WITH ADDITIONAL DATA IS
      ISSUED ABOUT 10 MINUTES AFTER THE HOUR.

NMZ501-503-504-510>518-241500-
NORTHWEST PLATEAU/NORTHCENTRAL MOUNTAINS

CITY           SKY/WX    TMP DP  RH WIND       PRES   REMARKS
FARMINGTON     LGT RAIN  45  43  93 SW3       29.98S
LOS ALAMOS     PTSUNNY   45  35  68 CALM      30.03S
SANTA FE       MOSUNNY   51  34  52 CALM      30.00S
TAOS           CLOUDY    39  30  70 E6        30.02F WCI  35
ANGEL FIRE     PTSUNNY   35  31  87 CALM      30.04F

$$
NMZ402-403-502-505>509-241500-
WESTCENTRAL MOUNTAINS/SOUTHWEST MOUNTAINS

CITY           SKY/WX    TMP DP  RH WIND       PRES   REMARKS
GALLUP         CLOUDY    45  32  60 SW5       30.03S
GRANTS         MOSUNNY   44  36  73 CALM      30.04S
SILVER CITY    SUNNY     54  28  37 NW5       30.06R

$$
NMZ407-409-411-412-241500-
SOUTHERN DESERTS

CITY           SKY/WX    TMP DP  RH WIND       PRES   REMARKS
LORDSBURG      FAIR      54  27  35 CALM      30.02S
DEMING         SUNNY     53  27  36 W8        30.01R
LAS CRUCES     SUNNY     57  28  32 W6        30.01R
HOLLOMAN AFB   MOSUNNY   61  27  27 SE8       29.95R
ALAMOGORDO     MOSUNNY   63  25  23 S10       29.97R
T OR C         SUNNY     59  27  29 N5        29.98R

$$
NMZ519>523-241500-
CENTRAL VALLEYS/CENTRAL HIGHLANDS

CITY           SKY/WX    TMP DP  RH WIND       PRES   REMARKS
ALBUQUERQUE    PTSUNNY   52  37  56 W3        30.01R
DOUBLE EAGLE   MOSUNNY   52  39  62 NW5       30.02R
MORIARTY ARPT  FAIR      49  35  58 CALM      30.02S
CLINES CORNERS NOT AVBL
BELEN          FAIR      54  36  51 CALM      30.01S
SOCORRO        FAIR      55  36  50 N3        29.99S

$$
NMZ524>526-539-540-241500-
SOUTHCENTRAL MOUNTAINS

CITY           SKY/WX    TMP DP  RH WIND       PRES   REMARKS
RUIDOSO        SUNNY     54  27  35 NW7       30.05S

$$
NMZ527>531-241500-
NORTHEAST HIGHLANDS/NORTHEAST PLAINS

CITY           SKY/WX    TMP DP  RH WIND       PRES   REMARKS
LAS VEGAS      SUNNY     50  30  46 SW6       29.98S
RATON          MOSUNNY   47  36  65 E6        29.93F
CLAYTON        MOSUNNY   55  50  83 NW8       29.89S

$$
NMZ532>537-241500-
EASTCENTRAL PLAINS

CITY           SKY/WX    TMP DP  RH WIND       PRES   REMARKS
TUCUMCARI      PTSUNNY   57  52  83 N5        29.87S
CANNON AFB     SUNNY     56  50  81 W10       29.88S
CLOVIS AIRPORT SUNNY     55  50  82 W12       29.88S

$$
NMZ028-029-538-241500-
SOUTHEAST PLAINS

CITY           SKY/WX    TMP DP  RH WIND       PRES   REMARKS
ROSWELL        SUNNY     60  45  57 SW3       29.90F
ARTESIA        SUNNY     68  30  24 W12       29.92S
CARLSBAD       SUNNY     68  35  29 W12       29.91R
HOBBS          SUNNY     59  54  82 SW10      29.91R


$$


USA.gov is the U.S. government's official web portal to all federal, state and local government web resources and services.